N100CX ZF9Q-UACC

Flight info

Callsign N100CX
Flight time N/A
Altitude 7000
Route 5259N06410E/TANGO DIDAL ATBAN ATNON LATKO DOKUT 5104N07109E/ZHANAYDAR
Aircraft C414/L-S/N

Departure

Time N/A
Airport ZF9Q

Arrival

Time 2026-04-25 18:52
Airport Nursultan Nazarbayev International Airport (UACC)
Time Latitude Longitude Altitude Speed Heading
2026-04-25 16:31 53.19182 63.74611 622 ft 0 kts 291°
2026-04-25 16:59 53.19182 63.74612 622 ft 0 kts 291°
2026-04-25 17:01 53.19182 63.74630 623 ft 0 kts 237°
2026-04-25 17:01 53.19182 63.74631 623 ft 0 kts 237°
2026-04-25 17:06 53.19152 63.74559 628 ft 13 kts 272°
2026-04-25 17:06 53.19201 63.74482 625 ft 19 kts
2026-04-25 17:06 53.19327 63.74505 621 ft 13 kts 27°
2026-04-25 17:06 53.19335 63.74482 622 ft 6 kts 173°
2026-04-25 17:07 53.19318 63.74486 621 ft 0 kts 183°
2026-04-25 17:07 53.19268 63.74483 623 ft 27 kts 181°
2026-04-25 17:07 53.18923 63.74460 629 ft 71 kts 182°
2026-04-25 17:07 53.18350 63.74432 694 ft 89 kts 181°
2026-04-25 17:08 53.17803 63.74786 826 ft 101 kts 122°
2026-04-25 17:08 53.17602 63.76094 823 ft 130 kts 106°
2026-04-25 17:08 53.17286 63.77566 952 ft 139 kts 131°
2026-04-25 17:08 53.16463 63.78376 1113 ft 142 kts 158°
2026-04-25 17:09 53.15685 63.79429 1281 ft 149 kts 135°
2026-04-25 17:09 53.15020 63.80790 1456 ft 153 kts 134°
2026-04-25 17:09 53.14364 63.82184 1688 ft 151 kts 135°
2026-04-25 17:09 53.13736 63.83567 1932 ft 149 kts 135°
2026-04-25 17:10 53.13111 63.84939 2183 ft 149 kts 135°
2026-04-25 17:10 53.12478 63.86304 2419 ft 149 kts 135°
2026-04-25 17:10 53.11847 63.87667 2667 ft 149 kts 135°
2026-04-25 17:10 53.11214 63.89033 2922 ft 149 kts 134°
2026-04-25 17:11 53.10583 63.90393 3178 ft 149 kts 134°
2026-04-25 17:11 53.09950 63.91757 3427 ft 149 kts 135°
2026-04-25 17:11 53.09321 63.93113 3674 ft 148 kts 135°
2026-04-25 17:11 53.08694 63.94466 3936 ft 148 kts 135°
2026-04-25 17:12 53.08067 63.95813 4194 ft 147 kts 135°
2026-04-25 17:12 53.07446 63.97150 4450 ft 147 kts 135°
2026-04-25 17:12 53.06824 63.98489 4709 ft 146 kts 135°
2026-04-25 17:12 53.06206 63.99816 4962 ft 145 kts 135°
2026-04-25 17:13 53.05586 64.01148 5208 ft 145 kts 135°
2026-04-25 17:13 53.05177 64.02030 5381 ft 145 kts 135°
2026-04-25 17:13 53.04361 64.03784 5723 ft 144 kts 136°
2026-04-25 17:13 53.03749 64.05096 5981 ft 144 kts 136°
2026-04-25 17:14 53.03137 64.06400 6240 ft 144 kts 136°
2026-04-25 17:14 53.02525 64.07713 6487 ft 144 kts 136°
2026-04-25 17:14 53.01915 64.09018 6742 ft 143 kts 136°
2026-04-25 17:14 53.01306 64.10322 6988 ft 144 kts 136°
2026-04-25 17:15 53.00655 64.11699 7021 ft 160 kts 136°
2026-04-25 17:15 52.99937 64.13226 7023 ft 175 kts 135°
2026-04-25 17:15 52.99164 64.14879 7022 ft 186 kts 134°
2026-04-25 17:15 52.98389 64.16659 7021 ft 197 kts 123°
2026-04-25 17:16 52.97959 64.18881 7020 ft 207 kts 109°
2026-04-25 17:16 52.97580 64.21197 7020 ft 210 kts 110°
2026-04-25 17:16 52.97182 64.23539 7016 ft 213 kts 110°
2026-04-25 17:16 52.96783 64.25908 7014 ft 215 kts 110°
2026-04-25 17:17 52.96382 64.28301 7014 ft 216 kts 110°
2026-04-25 17:17 52.95977 64.30709 7008 ft 217 kts 109°
2026-04-25 17:17 52.95572 64.33112 7011 ft 217 kts 109°
2026-04-25 17:17 52.95165 64.35516 7012 ft 217 kts 109°
2026-04-25 17:18 52.94760 64.37917 7008 ft 216 kts 110°
2026-04-25 17:18 52.94353 64.40313 7008 ft 216 kts 110°
2026-04-25 17:18 52.93948 64.42704 7008 ft 216 kts 110°
2026-04-25 17:18 52.93543 64.45091 7008 ft 216 kts 110°
2026-04-25 17:19 52.93137 64.47475 7005 ft 215 kts 110°
2026-04-25 17:19 52.92732 64.49859 7002 ft 215 kts 110°
2026-04-25 17:19 52.92325 64.52242 7002 ft 215 kts 110°
2026-04-25 17:19 52.91918 64.54623 7002 ft 215 kts 110°
2026-04-25 17:20 52.91509 64.57004 7001 ft 215 kts 110°
2026-04-25 17:20 52.91103 64.59388 7007 ft 215 kts 110°
2026-04-25 17:20 52.90696 64.61772 7007 ft 215 kts 110°
2026-04-25 17:20 52.90286 64.64153 7008 ft 215 kts 110°
2026-04-25 17:21 52.89878 64.66531 7004 ft 215 kts 110°
2026-04-25 17:21 52.89467 64.68910 7004 ft 215 kts 110°
2026-04-25 17:21 52.89057 64.71293 7004 ft 215 kts 110°
2026-04-25 17:21 52.88645 64.73675 7004 ft 215 kts 110°
2026-04-25 17:22 52.88234 64.76052 7007 ft 215 kts 110°
2026-04-25 17:22 52.87961 64.77634 7007 ft 215 kts 110°
2026-04-25 17:22 52.87411 64.80805 7006 ft 215 kts 110°
2026-04-25 17:22 52.86999 64.83183 7006 ft 215 kts 110°
2026-04-25 17:23 52.86585 64.85560 7007 ft 215 kts 110°
2026-04-25 17:23 52.86173 64.87935 7007 ft 215 kts 110°
2026-04-25 17:23 52.85759 64.90304 7007 ft 215 kts 110°
2026-04-25 17:23 52.85345 64.92680 7007 ft 215 kts 110°
2026-04-25 17:24 52.84930 64.95055 7006 ft 215 kts 110°
2026-04-25 17:24 52.84515 64.97426 7006 ft 215 kts 110°
2026-04-25 17:24 52.84100 64.99796 7007 ft 215 kts 109°
2026-04-25 17:24 52.83685 65.02164 7007 ft 215 kts 109°
2026-04-25 17:25 52.83269 65.04532 7005 ft 214 kts 108°
2026-04-25 17:25 52.82853 65.06893 7005 ft 214 kts 109°
2026-04-25 17:25 52.82437 65.09256 7004 ft 214 kts 109°
2026-04-25 17:25 52.82015 65.11613 7010 ft 214 kts 110°
2026-04-25 17:26 52.81595 65.13960 7011 ft 214 kts 110°
2026-04-25 17:26 52.81179 65.16318 7010 ft 214 kts 110°
2026-04-25 17:26 52.80764 65.18668 7010 ft 213 kts 110°
2026-04-25 17:26 52.80339 65.21013 7013 ft 213 kts 114°
2026-04-25 17:27 52.79788 65.23268 7017 ft 212 kts 116°
2026-04-25 17:27 52.79239 65.25519 7016 ft 212 kts 116°
2026-04-25 17:27 52.78692 65.27779 7015 ft 212 kts 116°
2026-04-25 17:27 52.78326 65.29286 7015 ft 212 kts 116°
2026-04-25 17:28 52.77599 65.32272 7012 ft 209 kts 116°
2026-04-25 17:28 52.77058 65.34489 7010 ft 208 kts 116°
2026-04-25 17:28 52.76518 65.36700 7010 ft 207 kts 116°
2026-04-25 17:28 52.75980 65.38900 7011 ft 207 kts 116°
2026-04-25 17:29 52.75443 65.41094 7010 ft 207 kts 116°
2026-04-25 17:29 52.74906 65.43286 7010 ft 206 kts 116°
2026-04-25 17:29 52.74370 65.45473 7009 ft 206 kts 116°
2026-04-25 17:29 52.73834 65.47653 7010 ft 206 kts 116°
2026-04-25 17:30 52.73298 65.49837 7012 ft 205 kts 116°
2026-04-25 17:30 52.72762 65.52016 7011 ft 206 kts 116°
2026-04-25 17:30 52.72226 65.54193 7011 ft 206 kts 116°
2026-04-25 17:30 52.71688 65.56374 7010 ft 206 kts 116°
2026-04-25 17:31 52.71149 65.58557 7012 ft 205 kts 116°
2026-04-25 17:31 52.70614 65.60729 7012 ft 205 kts 117°
2026-04-25 17:31 52.70075 65.62907 7011 ft 205 kts 116°
2026-04-25 17:31 52.69538 65.65078 7010 ft 205 kts 117°
2026-04-25 17:32 52.68998 65.67256 7010 ft 206 kts 116°
2026-04-25 17:32 52.68458 65.69433 7009 ft 206 kts 117°
2026-04-25 17:32 52.67917 65.71616 7011 ft 206 kts 117°
2026-04-25 17:32 52.67378 65.73787 7007 ft 205 kts 117°
2026-04-25 17:33 52.66838 65.75960 7013 ft 205 kts 117°
2026-04-25 17:33 52.66297 65.78130 7021 ft 205 kts 117°
2026-04-25 17:33 52.65758 65.80294 7011 ft 205 kts 117°
2026-04-25 17:33 52.65216 65.82468 7016 ft 205 kts 117°
2026-04-25 17:34 52.64676 65.84631 7016 ft 205 kts 117°
2026-04-25 17:34 52.64135 65.86795 7015 ft 205 kts 117°
2026-04-25 17:34 52.63593 65.88965 7011 ft 205 kts 117°
2026-04-25 17:34 52.63052 65.91124 7010 ft 205 kts 117°
2026-04-25 17:35 52.62509 65.93288 7013 ft 204 kts 117°
2026-04-25 17:35 52.61968 65.95448 7018 ft 205 kts 117°
2026-04-25 17:35 52.61425 65.97610 7009 ft 205 kts 117°
2026-04-25 17:35 52.60883 65.99768 7009 ft 205 kts 117°
2026-04-25 17:36 52.60338 66.01933 7013 ft 205 kts 117°
2026-04-25 17:36 52.59793 66.04095 7015 ft 205 kts 117°
2026-04-25 17:36 52.59248 66.06261 7013 ft 205 kts 117°
2026-04-25 17:36 52.58702 66.08424 7009 ft 205 kts 117°
2026-04-25 17:37 52.58156 66.10584 7008 ft 205 kts 117°
2026-04-25 17:37 52.57609 66.12746 7010 ft 205 kts 117°
2026-04-25 17:37 52.57062 66.14909 6997 ft 205 kts 118°
2026-04-25 17:37 52.56518 66.17057 7008 ft 204 kts 118°
2026-04-25 17:38 52.55976 66.19196 7014 ft 203 kts 118°
2026-04-25 17:38 52.55613 66.20625 7013 ft 203 kts 118°
2026-04-25 17:38 52.54890 66.23474 7008 ft 203 kts 118°
2026-04-25 17:38 52.54348 66.25603 7011 ft 203 kts 118°
2026-04-25 17:39 52.53806 66.27735 7010 ft 203 kts 118°
2026-04-25 17:39 52.53261 66.29870 7008 ft 203 kts 118°
2026-04-25 17:39 52.52720 66.31996 7011 ft 203 kts 118°
2026-04-25 17:39 52.52175 66.34130 7010 ft 203 kts 118°
2026-04-25 17:40 52.51632 66.36255 7010 ft 202 kts 118°
2026-04-25 17:40 52.51089 66.38379 7008 ft 203 kts 118°
2026-04-25 17:40 52.50543 66.40511 7009 ft 202 kts 118°
2026-04-25 17:40 52.49999 66.42636 7012 ft 203 kts 118°
2026-04-25 17:41 52.49454 66.44759 7006 ft 203 kts 118°
2026-04-25 17:41 52.48910 66.46879 7011 ft 202 kts 120°
2026-04-25 17:41 52.48368 66.48991 7009 ft 201 kts 120°
2026-04-25 17:41 52.47823 66.51107 7011 ft 201 kts 120°
2026-04-25 17:42 52.47281 66.53216 7009 ft 201 kts 120°
2026-04-25 17:42 52.46737 66.55323 7005 ft 201 kts 120°
2026-04-25 17:42 52.46193 66.57433 7007 ft 201 kts 120°
2026-04-25 17:42 52.45650 66.59536 7006 ft 201 kts 120°
2026-04-25 17:43 52.45110 66.61628 7012 ft 201 kts 120°
2026-04-25 17:43 52.44603 66.63585 7013 ft 201 kts 120°
2026-04-25 17:43 52.44057 66.65694 7011 ft 201 kts 120°
2026-04-25 17:43 52.43511 66.67805 7008 ft 201 kts 120°
2026-04-25 17:44 52.42965 66.69910 7005 ft 201 kts 120°
2026-04-25 17:44 52.42421 66.72005 7008 ft 200 kts 122°
2026-04-25 17:44 52.41877 66.74102 7002 ft 200 kts 123°
2026-04-25 17:44 52.41325 66.76197 7002 ft 201 kts 123°
2026-04-25 17:45 52.40764 66.78296 7003 ft 202 kts 123°
2026-04-25 17:45 52.40392 66.79700 7003 ft 203 kts 123°
2026-04-25 17:45 52.39645 66.82513 7002 ft 202 kts 123°
2026-04-25 17:45 52.39084 66.84621 7002 ft 202 kts 123°
2026-04-25 17:46 52.38526 66.86722 7004 ft 202 kts 123°
2026-04-25 17:46 52.37966 66.88820 7003 ft 201 kts 123°
2026-04-25 17:46 52.37405 66.90918 7002 ft 202 kts 123°
2026-04-25 17:46 52.36845 66.93018 7001 ft 202 kts 123°
2026-04-25 17:47 52.36284 66.95121 7004 ft 202 kts 123°
2026-04-25 17:47 52.35723 66.97218 7005 ft 202 kts 123°
2026-04-25 17:47 52.35159 66.99324 7004 ft 202 kts 123°
2026-04-25 17:47 52.34596 67.01425 7000 ft 202 kts 123°
2026-04-25 17:48 52.33470 67.05623 7002 ft 202 kts 123°
2026-04-25 17:48 52.32907 67.07722 7002 ft 202 kts 123°
2026-04-25 17:48 52.32342 67.09822 7002 ft 202 kts 123°
2026-04-25 17:49 52.31778 67.11915 7001 ft 202 kts 123°
2026-04-25 17:49 52.31213 67.14014 7000 ft 202 kts 123°
2026-04-25 17:49 52.30649 67.16106 7005 ft 201 kts 125°
2026-04-25 17:49 52.30086 67.18195 7005 ft 201 kts 125°
2026-04-25 17:50 52.29523 67.20276 7004 ft 201 kts 125°
2026-04-25 17:50 52.28959 67.22364 7005 ft 201 kts 125°
2026-04-25 17:50 52.28395 67.24446 7004 ft 201 kts 125°
2026-04-25 17:50 52.27831 67.26527 6996 ft 201 kts 125°
2026-04-25 17:51 52.27268 67.28608 7011 ft 201 kts 125°
2026-04-25 17:51 52.26699 67.30700 6996 ft 202 kts 126°
2026-04-25 17:51 52.26129 67.32795 7001 ft 203 kts 125°
2026-04-25 17:51 52.25560 67.34894 6995 ft 202 kts 125°
2026-04-25 17:52 52.24993 67.36985 6998 ft 201 kts 125°
2026-04-25 17:52 52.24614 67.38372 6998 ft 201 kts 125°
2026-04-25 17:52 52.23855 67.41148 6996 ft 202 kts 125°
2026-04-25 17:52 52.23284 67.43244 6990 ft 203 kts 125°
2026-04-25 17:53 52.22710 67.45346 6996 ft 203 kts 125°
2026-04-25 17:53 52.22136 67.47449 6995 ft 204 kts 125°
2026-04-25 17:53 52.21562 67.49545 6998 ft 204 kts 125°
2026-04-25 17:53 52.20985 67.51655 6995 ft 204 kts 125°
2026-04-25 17:54 52.20406 67.53767 6994 ft 204 kts 125°
2026-04-25 17:54 52.19829 67.55870 6994 ft 204 kts 126°
2026-04-25 17:54 52.19249 67.57984 6990 ft 205 kts 126°
2026-04-25 17:54 52.18667 67.60098 6983 ft 205 kts 126°
2026-04-25 17:55 52.18279 67.61509 6985 ft 205 kts 126°
2026-04-25 17:55 52.17501 67.64335 6980 ft 206 kts 126°
2026-04-25 17:55 52.16916 67.66457 6985 ft 206 kts 125°
2026-04-25 17:55 52.16332 67.68578 6979 ft 205 kts 125°
2026-04-25 17:56 52.15747 67.70694 6979 ft 205 kts 126°
2026-04-25 17:56 52.15164 67.72806 6981 ft 204 kts 125°
2026-04-25 17:56 52.14583 67.74904 6990 ft 204 kts 126°
2026-04-25 17:56 52.14002 67.77003 6982 ft 204 kts 126°
2026-04-25 17:57 52.13420 67.79101 6991 ft 204 kts 126°
2026-04-25 17:57 52.12838 67.81203 6971 ft 204 kts 126°
2026-04-25 17:57 52.12254 67.83303 6973 ft 204 kts 126°
2026-04-25 17:57 52.11866 67.84701 6978 ft 205 kts 126°
2026-04-25 17:58 52.11086 67.87513 6972 ft 206 kts 126°
2026-04-25 17:58 52.10497 67.89631 6971 ft 206 kts 127°
2026-04-25 17:58 52.09904 67.91739 6972 ft 206 kts 127°
2026-04-25 17:58 52.09314 67.93859 6973 ft 206 kts 127°
2026-04-25 17:59 52.08722 67.95985 6971 ft 207 kts 127°
2026-04-25 17:59 52.08128 67.98112 6970 ft 207 kts 127°
2026-04-25 17:59 52.07535 68.00232 6970 ft 207 kts 127°
2026-04-25 17:59 52.06939 68.02362 6963 ft 208 kts 127°
2026-04-25 18:00 52.06340 68.04498 6963 ft 208 kts 127°
2026-04-25 18:00 52.05743 68.06630 6965 ft 208 kts 125°
2026-04-25 18:00 52.05152 68.08777 6965 ft 209 kts 125°
2026-04-25 18:00 52.04551 68.10923 6966 ft 210 kts 125°
2026-04-25 18:01 52.03942 68.13081 6959 ft 211 kts 125°
2026-04-25 18:01 52.03331 68.15246 6960 ft 212 kts 125°
2026-04-25 18:01 52.02718 68.17422 6963 ft 212 kts 125°
2026-04-25 18:01 52.02106 68.19593 6963 ft 212 kts 125°
2026-04-25 18:02 52.01492 68.21768 6963 ft 212 kts 125°
2026-04-25 18:02 52.00879 68.23938 6965 ft 212 kts 125°
2026-04-25 18:02 52.00264 68.26114 6964 ft 213 kts 125°
2026-04-25 18:02 51.99645 68.28300 6970 ft 213 kts 125°
2026-04-25 18:03 51.99030 68.30475 6997 ft 213 kts 125°
2026-04-25 18:03 51.98410 68.32658 6997 ft 214 kts 125°
2026-04-25 18:03 51.97790 68.34841 6997 ft 214 kts 125°
2026-04-25 18:03 51.97157 68.37018 6996 ft 212 kts 128°
2026-04-25 18:04 51.96493 68.39147 6995 ft 213 kts 126°
2026-04-25 18:04 51.95850 68.41300 6990 ft 213 kts 126°
2026-04-25 18:04 51.95199 68.43447 6992 ft 213 kts 127°
2026-04-25 18:04 51.94544 68.45588 6992 ft 212 kts 127°
2026-04-25 18:05 51.93889 68.47726 6992 ft 212 kts 127°
2026-04-25 18:05 51.93236 68.49860 6990 ft 212 kts 127°
2026-04-25 18:05 51.92581 68.51994 6992 ft 212 kts 127°
2026-04-25 18:05 51.91927 68.54128 6985 ft 212 kts 129°
2026-04-25 18:06 51.91271 68.56260 6996 ft 211 kts 128°
2026-04-25 18:06 51.90620 68.58383 6995 ft 211 kts 128°
2026-04-25 18:06 51.89966 68.60506 6991 ft 211 kts 128°
2026-04-25 18:06 51.89311 68.62635 6998 ft 211 kts 128°
2026-04-25 18:07 51.88658 68.64755 6996 ft 211 kts 128°
2026-04-25 18:07 51.88002 68.66880 6996 ft 212 kts 128°
2026-04-25 18:07 51.87346 68.69005 6996 ft 212 kts 128°
2026-04-25 18:07 51.86689 68.71132 6998 ft 212 kts 128°
2026-04-25 18:08 51.86033 68.73251 6995 ft 211 kts 128°
2026-04-25 18:08 51.85376 68.75374 7000 ft 212 kts 128°
2026-04-25 18:08 51.84717 68.77502 6998 ft 212 kts 128°
2026-04-25 18:08 51.84056 68.79632 6999 ft 213 kts 128°
2026-04-25 18:09 51.83395 68.81764 7001 ft 213 kts 129°
2026-04-25 18:09 51.82734 68.83892 6999 ft 212 kts 129°
2026-04-25 18:09 51.82075 68.86013 7002 ft 211 kts 129°
2026-04-25 18:09 51.81635 68.87427 7000 ft 212 kts 130°
2026-04-25 18:10 51.80752 68.90260 6997 ft 212 kts 129°
2026-04-25 18:10 51.80090 68.92384 6999 ft 212 kts 130°
2026-04-25 18:10 51.79428 68.94507 7000 ft 212 kts 130°
2026-04-25 18:10 51.78766 68.96628 7008 ft 212 kts 129°
2026-04-25 18:11 51.78103 68.98749 7006 ft 212 kts 129°
2026-04-25 18:11 51.77442 69.00862 7007 ft 211 kts 129°
2026-04-25 18:11 51.76782 69.02973 7005 ft 211 kts 129°
2026-04-25 18:11 51.76121 69.05079 7005 ft 211 kts 130°
2026-04-25 18:12 51.75460 69.07187 7009 ft 211 kts 130°
2026-04-25 18:12 51.74800 69.09290 7010 ft 211 kts 130°
2026-04-25 18:12 51.74137 69.11401 7009 ft 211 kts 130°
2026-04-25 18:12 51.73475 69.13506 7011 ft 211 kts 130°
2026-04-25 18:13 51.72813 69.15610 7007 ft 211 kts 130°
2026-04-25 18:13 51.72150 69.17715 7008 ft 211 kts 130°
2026-04-25 18:13 51.71489 69.19814 7008 ft 210 kts 130°
2026-04-25 18:14 51.70165 69.24008 7021 ft 210 kts 130°
2026-04-25 18:14 51.69503 69.26101 7026 ft 210 kts 130°
2026-04-25 18:14 51.68841 69.28192 7026 ft 210 kts 130°
2026-04-25 18:14 51.68176 69.30294 7027 ft 211 kts 130°
2026-04-25 18:15 51.67510 69.32394 7026 ft 211 kts 130°
2026-04-25 18:15 51.66843 69.34495 7027 ft 211 kts 130°
2026-04-25 18:15 51.66177 69.36600 7016 ft 210 kts 129°
2026-04-25 18:15 51.65515 69.38686 7025 ft 210 kts 129°
2026-04-25 18:16 51.64850 69.40775 7025 ft 210 kts 129°
2026-04-25 18:16 51.64184 69.42866 7026 ft 210 kts 129°
2026-04-25 18:16 51.62853 69.47043 7026 ft 210 kts 129°
2026-04-25 18:17 51.62188 69.49129 7028 ft 210 kts 129°
2026-04-25 18:17 51.61522 69.51217 7037 ft 210 kts 129°
2026-04-25 18:17 51.60856 69.53298 7038 ft 210 kts 129°
2026-04-25 18:17 51.60190 69.55382 7037 ft 210 kts 129°
2026-04-25 18:18 51.59523 69.57465 7037 ft 210 kts 129°
2026-04-25 18:18 51.58855 69.59551 7036 ft 210 kts 129°
2026-04-25 18:18 51.58186 69.61636 7037 ft 210 kts 129°
2026-04-25 18:18 51.57518 69.63718 7038 ft 210 kts 130°
2026-04-25 18:19 51.56849 69.65803 7034 ft 210 kts 129°
2026-04-25 18:19 51.56178 69.67888 7040 ft 210 kts 129°
2026-04-25 18:19 51.55508 69.69970 7040 ft 210 kts 129°
2026-04-25 18:19 51.54839 69.72049 7040 ft 210 kts 130°
2026-04-25 18:20 51.54168 69.74129 7039 ft 210 kts 129°
2026-04-25 18:20 51.53499 69.76203 7040 ft 210 kts 129°
2026-04-25 18:20 51.52827 69.78285 7044 ft 210 kts 129°
2026-04-25 18:20 51.52154 69.80367 7043 ft 210 kts 129°
2026-04-25 18:21 51.51482 69.82446 7044 ft 211 kts 129°
2026-04-25 18:21 51.50808 69.84530 7045 ft 211 kts 129°
2026-04-25 18:21 51.50191 69.86433 7042 ft 210 kts 129°
2026-04-25 18:21 51.49518 69.88511 7046 ft 210 kts 130°
2026-04-25 18:22 51.48842 69.90592 7048 ft 211 kts 129°
2026-04-25 18:22 51.48391 69.91978 7046 ft 211 kts 129°
2026-04-25 18:22 51.47477 69.94751 7044 ft 211 kts 130°
2026-04-25 18:22 51.46790 69.96819 7044 ft 210 kts 130°
2026-04-25 18:23 51.46108 69.98892 7046 ft 211 kts 128°
2026-04-25 18:23 51.45654 70.01189 7051 ft 222 kts 111°
2026-04-25 18:23 51.45422 70.03651 7052 ft 225 kts 107°
2026-04-25 18:23 51.45198 70.06121 7063 ft 224 kts 109°
2026-04-25 18:24 51.44944 70.08578 7066 ft 224 kts 109°
2026-04-25 18:24 51.44688 70.11037 7070 ft 224 kts 109°
2026-04-25 18:24 51.44434 70.13497 7070 ft 224 kts 109°
2026-04-25 18:24 51.44181 70.15956 7071 ft 224 kts 109°
2026-04-25 18:25 51.43926 70.18421 7071 ft 224 kts 109°
2026-04-25 18:25 51.43670 70.20881 7071 ft 224 kts 109°
2026-04-25 18:25 51.43414 70.23338 7073 ft 224 kts 109°
2026-04-25 18:25 51.43158 70.25796 7069 ft 225 kts 109°
2026-04-25 18:26 51.42903 70.28258 7066 ft 225 kts 109°
2026-04-25 18:26 51.42645 70.30728 7066 ft 225 kts 109°
2026-04-25 18:26 51.42384 70.33190 7068 ft 225 kts 110°
2026-04-25 18:26 51.42121 70.35662 7066 ft 226 kts 109°
2026-04-25 18:27 51.41862 70.38135 7070 ft 225 kts 109°
2026-04-25 18:27 51.41606 70.40595 7069 ft 224 kts 109°
2026-04-25 18:27 51.41344 70.43049 7068 ft 224 kts 110°
2026-04-25 18:27 51.41081 70.45505 7079 ft 224 kts 109°
2026-04-25 18:28 51.40823 70.47948 7075 ft 223 kts 110°
2026-04-25 18:28 51.40562 70.50401 7077 ft 224 kts 110°
2026-04-25 18:28 51.40285 70.52852 7073 ft 224 kts 111°
2026-04-25 18:29 51.39700 70.57736 7076 ft 224 kts 111°
2026-04-25 18:29 51.39406 70.60177 7080 ft 224 kts 111°
2026-04-25 18:30 51.38584 70.67531 7070 ft 225 kts 109°
2026-04-25 18:30 51.38323 70.69996 7071 ft 225 kts 109°
2026-04-25 18:30 51.38061 70.72460 7078 ft 226 kts 109°
2026-04-25 18:30 51.37795 70.74926 7078 ft 225 kts 109°
2026-04-25 18:31 51.37527 70.77396 7079 ft 225 kts 109°
2026-04-25 18:31 51.37259 70.79859 7080 ft 225 kts 109°
2026-04-25 18:31 51.36997 70.82300 6956 ft 222 kts 109°
2026-04-25 18:31 51.36738 70.84703 6711 ft 218 kts 109°
2026-04-25 18:32 51.36482 70.87072 6472 ft 215 kts 109°
2026-04-25 18:32 51.36226 70.89418 6230 ft 213 kts 110°
2026-04-25 18:32 51.35977 70.91720 6097 ft 206 kts 110°
2026-04-25 18:32 51.35728 70.93987 6106 ft 209 kts 110°
2026-04-25 18:33 51.35473 70.96296 6106 ft 213 kts 110°
2026-04-25 18:33 51.35216 70.98644 6109 ft 216 kts 110°
2026-04-25 18:33 51.34957 71.01011 6112 ft 218 kts 110°
2026-04-25 18:33 51.34695 71.03400 6108 ft 219 kts 110°
2026-04-25 18:34 51.34429 71.05804 6110 ft 220 kts 110°
2026-04-25 18:34 51.34157 71.08245 6017 ft 227 kts 109°
2026-04-25 18:34 51.33886 71.10721 6008 ft 227 kts 110°
2026-04-25 18:34 51.33609 71.13196 6008 ft 226 kts 110°
2026-04-25 18:35 51.33333 71.15670 6018 ft 226 kts 110°
2026-04-25 18:35 51.33057 71.18146 5993 ft 227 kts 110°
2026-04-25 18:35 51.32788 71.20594 5991 ft 222 kts 110°
2026-04-25 18:35 51.32518 71.23004 5987 ft 219 kts 111°
2026-04-25 18:36 51.32259 71.25377 5992 ft 218 kts 110°
2026-04-25 18:36 51.31992 71.27748 5989 ft 217 kts 111°
2026-04-25 18:36 51.31720 71.30112 5987 ft 217 kts 110°
2026-04-25 18:36 51.31452 71.32489 5988 ft 218 kts 110°
2026-04-25 18:37 51.31186 71.34871 5988 ft 218 kts 110°
2026-04-25 18:37 51.30928 71.37150 5989 ft 218 kts 110°
2026-04-25 18:37 51.30650 71.39608 5989 ft 218 kts 110°
2026-04-25 18:37 51.30380 71.41991 5989 ft 218 kts 111°
2026-04-25 18:38 51.30111 71.44365 5985 ft 218 kts 111°
2026-04-25 18:38 51.29841 71.46735 5982 ft 217 kts 111°
2026-04-25 18:38 51.29570 71.49104 5986 ft 217 kts 111°
2026-04-25 18:38 51.29300 71.51469 5958 ft 217 kts 111°
2026-04-25 18:39 51.29073 71.53468 5989 ft 215 kts 111°
2026-04-25 18:39 51.28803 71.55813 5990 ft 215 kts 111°
2026-04-25 18:39 51.28532 71.58162 5983 ft 215 kts 112°
2026-04-25 18:39 51.28266 71.60503 5981 ft 215 kts 111°
2026-04-25 18:40 51.27997 71.62847 5748 ft 214 kts 111°
2026-04-25 18:40 51.27706 71.65135 5496 ft 205 kts 119°
2026-04-25 18:40 51.27085 71.67043 5241 ft 186 kts 141°
2026-04-25 18:40 51.26228 71.68492 4940 ft 179 kts 149°
2026-04-25 18:41 51.25337 71.69912 4593 ft 183 kts 148°
2026-04-25 18:41 51.24445 71.71354 4251 ft 183 kts 148°
2026-04-25 18:41 51.23547 71.72797 3906 ft 183 kts 147°
2026-04-25 18:41 51.22609 71.73967 3787 ft 157 kts 165°
2026-04-25 18:42 51.21637 71.74438 3781 ft 141 kts 182°
2026-04-25 18:42 51.20995 71.74461 3778 ft 137 kts 192°
2026-04-25 18:42 51.19839 71.73925 3780 ft 122 kts 210°
2026-04-25 18:42 51.19204 71.73114 3781 ft 113 kts 222°
2026-04-25 18:43 51.18652 71.72284 3779 ft 106 kts 221°
2026-04-25 18:43 51.18113 71.71453 3783 ft 109 kts 222°
2026-04-25 18:43 51.17571 71.70595 3782 ft 111 kts 223°
2026-04-25 18:43 51.17018 71.69735 3784 ft 112 kts 223°
2026-04-25 18:44 51.16467 71.68861 3784 ft 111 kts 222°
2026-04-25 18:44 51.15930 71.68023 3783 ft 107 kts 223°
2026-04-25 18:44 51.15403 71.67199 3780 ft 105 kts 222°
2026-04-25 18:44 51.14889 71.66386 3790 ft 103 kts 224°
2026-04-25 18:45 51.14368 71.65574 3793 ft 109 kts 224°
2026-04-25 18:45 51.13819 71.64710 3801 ft 113 kts 224°
2026-04-25 18:45 51.13262 71.63838 3805 ft 109 kts 225°
2026-04-25 18:45 51.12732 71.63005 3748 ft 107 kts 224°
2026-04-25 18:46 51.12190 71.62161 3610 ft 111 kts 224°
2026-04-25 18:46 51.11641 71.61294 3467 ft 111 kts 224°
2026-04-25 18:46 51.11098 71.60449 3325 ft 109 kts 224°
2026-04-25 18:46 51.10577 71.59633 3185 ft 101 kts 224°
2026-04-25 18:47 51.10097 71.58880 3058 ft 94 kts 223°
2026-04-25 18:47 51.09641 71.58170 2934 ft 90 kts 223°
2026-04-25 18:47 51.09238 71.57533 2829 ft 74 kts 222°
2026-04-25 18:47 51.08879 71.56977 2738 ft 69 kts 222°
2026-04-25 18:48 51.08555 71.56465 2644 ft 63 kts 221°
2026-04-25 18:48 51.08257 71.55999 2569 ft 58 kts 221°
2026-04-25 18:48 51.07959 71.55534 2497 ft 64 kts 221°
2026-04-25 18:48 51.07627 71.55020 2412 ft 70 kts 220°
2026-04-25 18:49 51.07276 71.54472 2315 ft 72 kts 218°
2026-04-25 18:49 51.06908 71.53890 2215 ft 79 kts 218°
2026-04-25 18:49 51.06518 71.53279 2100 ft 78 kts 222°
2026-04-25 18:49 51.06134 71.52687 1984 ft 78 kts 219°
2026-04-25 18:50 51.05730 71.52049 1865 ft 85 kts 220°
2026-04-25 18:50 51.05308 71.51392 1746 ft 84 kts 219°
2026-04-25 18:50 51.04888 71.50747 1626 ft 90 kts 219°
2026-04-25 18:50 51.04438 71.50024 1502 ft 93 kts 217°
2026-04-25 18:51 51.03988 71.49327 1377 ft 85 kts 219°
2026-04-25 18:51 51.03716 71.48902 1305 ft 81 kts 217°
2026-04-25 18:51 51.03187 71.48055 1191 ft 80 kts 216°
2026-04-25 18:51 51.02806 71.47478 1165 ft 69 kts 219°
2026-04-25 18:52 51.02607 71.47175 1162 ft 11 kts 229°
2026-04-25 18:52 51.02630 71.47105 1162 ft 19 kts 323°
2026-04-25 18:52 51.02701 71.47007 1163 ft 0 kts 315°
2026-04-25 18:53 51.02719 71.46883 1164 ft 21 kts 226°
2026-04-25 18:53 51.02603 71.46698 1164 ft 25 kts 226°
2026-04-25 18:53 51.02469 71.46490 1164 ft 30 kts 225°
2026-04-25 18:53 51.02325 71.46266 1164 ft 32 kts 223°
2026-04-25 18:54 51.02044 71.45827 1164 ft 27 kts 225°
2026-04-25 18:54 51.01993 71.45651 1163 ft 19 kts 314°
2026-04-25 18:54 51.02070 71.45582 1164 ft 10 kts 47°
2026-04-25 18:55 51.02127 71.45608 1164 ft 9 kts 316°
2026-04-25 18:55 51.02195 71.45501 1163 ft 18 kts 313°
2026-04-25 18:55 51.02253 71.45454 1164 ft 8 kts 52°
2026-04-25 18:55 51.02270 71.45484 1164 ft 0 kts 45°
2026-04-25 18:57 51.02270 71.45483 1164 ft 0 kts 45°
2026-04-25 19:01 51.02269 71.45483 1164 ft 0 kts 45°